Port Huron, MI

8:25 AM EST on December 10, 2019 (GMT -0500)
Saint Clair County International

Weather History for KPHN - September, 2019

Change the Weather History Date:

Wednesday, September 18, 2019

  Actual Average (KMTC) Record (KMTC)
Temperature  
Mean Temperature 64 °F -  
Max Temperature 78 °F 72 °F 92 °F (1955)
Min Temperature 50 °F 52 °F 36 °F (1990)
Degree Days  
Heating Degree Days 1    
Growing Degree Days 14 (Base 50)    
Moisture  
Dew Point 50 °F    
Average Humidity 64    
Maximum Humidity 94    
Minimum Humidity 26    
Precipitation  
Precipitation 0.00 in - - ()
Sea Level Pressure  
Sea Level Pressure 30.22 in    
Wind  
Wind Speed 3 mph (SE)    
Max Wind Speed 12 mph    
Max Gust Speed 17 mph    
Visibility 8 miles    
Events Fog    
Averages and records for this station are not official NWS values.
T = Trace of Precipitation, MM = Missing Value Source: NWS Daily Summary

Daily Weather History Graph

Daily Weather History Graph

Search for Another Location

Airport or City:

Astronomy

Sep. 18, 2019 Rise Set
Actual Time 7:12 AM EDT 7:35 PM EDT
Civil Twilight 6:44 AM EDT 8:03 PM EDT
Nautical Twilight 6:10 AM EDT 8:36 PM EDT
Astronomical Twilight 5:36 AM EDT 9:10 PM EDT
Moon 10:02 PM EDT (9/18) 11:20 AM EDT (9/18)
Length of Visible Light 13h 18m
Length of Day
12h 22m
Waning Gibbous, 82% of the Moon is Illuminated
Sep 18
Waning Gibbous
Sep 21
Last Quarter
Sep 28
New
Oct 5
First Quarter
Oct 13
Full

Hourly Weather History & Observations

Time (EDT) Temp. Dew Point Humidity Pressure Visibility Wind Dir Wind Speed Gust Speed Precip Events Conditions
12:15 AM 55.4 °F 51.8 °F 88% 30.21 in 0.8 mi Calm Calm - N/A   Mostly Cloudy
12:35 AM 55.4 °F 53.6 °F 94% 30.21 in 1.0 mi Calm Calm - N/A   Scattered Clouds
12:36 AM 55.4 °F 53.6 °F 94% 30.21 in 1.0 mi Calm Calm - N/A   Scattered Clouds
12:55 AM 55.4 °F 51.8 °F 88% 30.21 in 1.2 mi Calm Calm - N/A   Mist
1:15 AM 55.4 °F 51.8 °F 88% 30.21 in 0.5 mi Calm Calm - N/A Fog Fog
1:35 AM 55.4 °F 53.6 °F 94% 30.21 in 10.0 mi Calm Calm - N/A   Scattered Clouds
1:36 AM 55.4 °F 53.6 °F 94% 30.21 in 10.0 mi Calm Calm - N/A   Scattered Clouds
1:55 AM 55.4 °F 51.8 °F 88% 30.21 in 3.0 mi Calm Calm - N/A   Clear
2:15 AM 53.6 °F 51.8 °F 94% 30.21 in 0.5 mi Calm Calm - N/A Fog Fog
2:35 AM 55.4 °F 51.8 °F 88% 30.21 in 2.0 mi Calm Calm - N/A   Scattered Clouds
2:36 AM 55.4 °F 51.8 °F 88% 30.21 in 2.0 mi Calm Calm - N/A   Scattered Clouds
2:55 AM 55.4 °F 51.8 °F 88% 30.21 in 3.0 mi Calm Calm - N/A   Clear
2:56 AM 55.4 °F 51.8 °F 88% 30.21 in 4.0 mi Calm Calm - N/A   Clear
3:15 AM 55.4 °F 53.6 °F 94% 30.21 in 10.0 mi Calm Calm - N/A   Clear
3:16 AM 55.4 °F 51.8 °F 88% 30.21 in 10.0 mi Calm Calm - N/A   Clear
3:35 AM 53.6 °F 51.8 °F 94% 30.21 in 0.5 mi Calm Calm - N/A Fog Fog
3:55 AM 51.8 °F 50.0 °F 94% 30.21 in 0.8 mi Calm Calm - N/A   Mostly Cloudy
3:56 AM 51.8 °F 50.0 °F 94% 30.21 in 0.5 mi Calm Calm - N/A Fog Fog
4:15 AM 53.6 °F 50.0 °F 88% 30.21 in 0.5 mi Calm Calm - N/A Fog Fog
4:16 AM 53.6 °F 50.0 °F 88% 30.21 in 0.5 mi Calm Calm - N/A Fog Fog
4:35 AM 51.8 °F 48.2 °F 88% 30.21 in 1.0 mi Calm Calm - N/A   Mostly Cloudy
4:55 AM 51.8 °F 48.2 °F 88% 30.21 in 0.5 mi Calm Calm - N/A Fog Fog
4:56 AM 51.8 °F 48.2 °F 88% 30.21 in 0.5 mi Calm Calm - N/A Fog Fog
5:15 AM 51.8 °F 48.2 °F 88% 30.21 in 0.5 mi Calm Calm - N/A Fog Fog
5:16 AM 51.8 °F 48.2 °F 88% 30.21 in 0.5 mi Calm Calm - N/A Fog Fog
5:35 AM 51.8 °F 48.2 °F 88% 30.21 in 0.8 mi Calm Calm - N/A   Mostly Cloudy
5:55 AM 51.8 °F 48.2 °F 88% 30.21 in 1.2 mi Calm Calm - N/A   Mist
6:15 AM 51.8 °F 48.2 °F 88% 30.21 in 0.5 mi Calm Calm - N/A Fog Fog
6:16 AM 51.8 °F 48.2 °F 88% 30.21 in 0.5 mi Calm Calm - N/A Fog Fog
6:35 AM 50.0 °F 48.2 °F 94% 30.22 in 0.5 mi Calm Calm - N/A Fog Fog
6:55 AM 51.8 °F 48.2 °F 88% 30.21 in 0.5 mi Calm Calm - N/A Fog Fog
7:15 AM 53.6 °F 50.0 °F 88% 30.22 in 10.0 mi Calm Calm - N/A   Clear
7:16 AM 53.6 °F 50.0 °F 88% 30.22 in 10.0 mi Calm Calm - N/A   Clear
7:35 AM 53.6 °F 50.0 °F 88% 30.22 in 10.0 mi East 3.5 mph - N/A   Clear
7:55 AM 57.2 °F 55.4 °F 94% 30.22 in 10.0 mi East 4.6 mph - N/A   Clear
8:15 AM 60.8 °F 57.2 °F 88% 30.22 in 10.0 mi Calm Calm - N/A   Clear
8:16 AM 60.8 °F 57.2 °F 88% 30.22 in 10.0 mi Calm Calm - N/A   Clear
8:35 AM 60.8 °F 59.0 °F 94% 30.22 in 10.0 mi ESE 4.6 mph - N/A   Clear
8:36 AM 62.6 °F 59.0 °F 88% 30.22 in 10.0 mi ESE 4.6 mph - N/A   Clear
8:55 AM 62.6 °F 59.0 °F 88% 30.22 in 10.0 mi SE 4.6 mph - N/A   Clear
9:15 AM 64.4 °F 59.0 °F 83% 30.23 in 10.0 mi SSE 5.8 mph - N/A   Clear
9:35 AM 66.2 °F 59.0 °F 78% 30.23 in 10.0 mi ESE 8.1 mph - N/A   Clear
9:36 AM 66.2 °F 59.0 °F 78% 30.23 in 10.0 mi SE 6.9 mph - N/A   Clear
9:55 AM 68.0 °F 59.0 °F 73% 30.23 in 10.0 mi SE 8.1 mph - N/A   Clear
10:15 AM 69.8 °F 57.2 °F 64% 30.23 in 10.0 mi SSE 10.4 mph - N/A   Clear
10:35 AM 69.8 °F 57.2 °F 64% 30.23 in 10.0 mi SE 11.5 mph - N/A   Clear
10:36 AM 69.8 °F 57.2 °F 64% 30.23 in 10.0 mi SE 11.5 mph - N/A   Clear
10:55 AM 71.6 °F 55.4 °F 57% 30.23 in 10.0 mi SE 9.2 mph - N/A   Clear
10:56 AM 71.6 °F 57.2 °F 60% 30.23 in 10.0 mi SE 9.2 mph - N/A   Clear
11:15 AM 73.4 °F 57.2 °F 57% 30.23 in 10.0 mi SE 5.8 mph - N/A   Clear
11:35 AM 73.4 °F 55.4 °F 53% 30.24 in 10.0 mi SSE 9.2 mph - N/A   Clear
11:36 AM 73.4 °F 55.4 °F 53% 30.24 in 10.0 mi SE 9.2 mph - N/A   Clear
11:55 AM 75.2 °F 55.4 °F 50% 30.24 in 10.0 mi SE 6.9 mph - N/A   Clear
11:56 AM 75.2 °F 55.4 °F 50% 30.24 in 10.0 mi SE 9.2 mph - N/A   Clear
12:15 PM 75.2 °F 53.6 °F 47% 30.24 in 10.0 mi SSE 8.1 mph - N/A   Clear
12:35 PM 75.2 °F 51.8 °F 44% 30.24 in 10.0 mi SSE 6.9 mph - N/A   Clear
12:55 PM 77.0 °F 48.2 °F 36% 30.24 in 10.0 mi South 10.4 mph 17.3 mph N/A   Clear
12:56 PM 77.0 °F 46.4 °F 34% 30.24 in 10.0 mi South 10.4 mph 17.3 mph N/A   Clear
1:15 PM 77.0 °F 48.2 °F 36% 30.25 in 10.0 mi SSE 10.4 mph - N/A   Clear
1:16 PM 77.0 °F 46.4 °F 34% 30.25 in 10.0 mi SSE 9.2 mph - N/A   Clear
1:35 PM 77.0 °F 44.6 °F 32% 30.24 in 10.0 mi SSE 8.1 mph 16.1 mph N/A   Clear
1:55 PM 77.0 °F 44.6 °F 32% 30.24 in 10.0 mi SE 10.4 mph 16.1 mph N/A   Clear
2:15 PM 77.0 °F 42.8 °F 29% 30.24 in 10.0 mi SSE 11.5 mph - N/A   Clear
2:16 PM 77.0 °F 44.6 °F 32% 30.24 in 10.0 mi SSE 11.5 mph - N/A   Clear
2:35 PM 78.8 °F 42.8 °F 28% 30.24 in 10.0 mi SE 11.5 mph - N/A   Clear
2:55 PM 78.8 °F 41.0 °F 26% 30.23 in 10.0 mi SSE 10.4 mph 16.1 mph N/A   Clear
3:15 PM 78.8 °F 41.0 °F 26% 30.23 in 10.0 mi SE 10.4 mph - N/A   Clear
3:16 PM 78.8 °F 41.0 °F 26% 30.23 in 10.0 mi SE 9.2 mph - N/A   Clear
3:35 PM 78.8 °F 42.8 °F 28% 30.23 in 10.0 mi SSE 8.1 mph - N/A   Clear
3:36 PM 78.8 °F 42.8 °F 28% 30.23 in 10.0 mi SE 6.9 mph - N/A   Clear
3:55 PM 78.8 °F 42.8 °F 28% 30.22 in 10.0 mi SSE 5.8 mph - N/A   Clear
4:15 PM 77.0 °F 41.0 °F 28% 30.22 in 10.0 mi SE 6.9 mph - N/A   Clear
4:36 PM 77.0 °F 41.0 °F 28% 30.22 in 10.0 mi SSE 8.1 mph - N/A   Clear
4:55 PM 77.0 °F 42.8 °F 29% 30.22 in 10.0 mi SSE 9.2 mph - N/A   Clear
5:15 PM 77.0 °F 44.6 °F 32% 30.21 in 10.0 mi SE 9.2 mph - N/A   Clear
5:35 PM 77.0 °F 44.6 °F 32% 30.20 in 10.0 mi SE 6.9 mph - N/A   Clear
5:36 PM 77.0 °F 44.6 °F 32% 30.20 in 10.0 mi SE 6.9 mph - N/A   Clear
5:55 PM 77.0 °F 44.6 °F 32% 30.20 in 10.0 mi ESE 8.1 mph - N/A   Clear
5:56 PM 77.0 °F 44.6 °F 32% 30.20 in 10.0 mi ESE 9.2 mph - N/A   Clear
6:15 PM 75.2 °F 44.6 °F 34% 30.21 in 10.0 mi SE 5.8 mph - N/A   Clear
6:35 PM 75.2 °F 44.6 °F 34% 30.20 in 10.0 mi SE 6.9 mph - N/A   Clear
6:36 PM 75.2 °F 44.6 °F 34% 30.20 in 10.0 mi ESE 6.9 mph - N/A   Clear
6:55 PM 73.4 °F 46.4 °F 38% 30.20 in 10.0 mi ESE 5.8 mph - N/A   Clear
6:56 PM 73.4 °F 46.4 °F 38% 30.20 in 10.0 mi ESE 5.8 mph - N/A   Clear
7:15 PM 69.8 °F 46.4 °F 43% 30.20 in 10.0 mi SE 4.6 mph - N/A   Clear
7:16 PM 69.8 °F 46.4 °F 43% 30.20 in 10.0 mi SE 4.6 mph - N/A   Clear
7:35 PM 69.8 °F 48.2 °F 46% 30.21 in 10.0 mi ESE 4.6 mph - N/A   Clear
7:55 PM 68.0 °F 48.2 °F 49% 30.21 in 10.0 mi ESE 5.8 mph - N/A   Clear
7:56 PM 68.0 °F 48.2 °F 49% 30.21 in 10.0 mi ESE 5.8 mph - N/A   Clear
8:15 PM 66.2 °F 48.2 °F 52% 30.21 in 10.0 mi ESE 3.5 mph - N/A   Clear
8:16 PM 66.2 °F 48.2 °F 52% 30.21 in 10.0 mi ESE 3.5 mph - N/A   Clear
8:35 PM 64.4 °F 50.0 °F 59% 30.22 in 10.0 mi Calm Calm - N/A   Clear
8:55 PM 60.8 °F 50.0 °F 68% 30.22 in 10.0 mi Calm Calm - N/A   Clear
9:15 PM 62.6 °F 50.0 °F 63% 30.21 in 10.0 mi Calm Calm - N/A   Clear
9:16 PM 62.6 °F 50.0 °F 63% 30.21 in 10.0 mi Calm Calm - N/A   Clear
9:35 PM 59.0 °F 48.2 °F 67% 30.21 in 10.0 mi Calm Calm - N/A   Clear
9:55 PM 57.2 °F 50.0 °F 77% 30.22 in 10.0 mi Calm Calm - N/A   Clear
10:15 PM 62.6 °F 50.0 °F 63% 30.22 in 10.0 mi SE 4.6 mph - N/A   Clear
10:16 PM 62.6 °F 50.0 °F 63% 30.22 in 10.0 mi SE 4.6 mph - N/A   Clear
10:35 PM 62.6 °F 51.8 °F 68% 30.22 in 10.0 mi SSE 3.5 mph - N/A   Clear
10:55 PM 62.6 °F 51.8 °F 68% 30.21 in 10.0 mi SE 5.8 mph - N/A   Clear
11:15 PM 62.6 °F 51.8 °F 68% 30.21 in 10.0 mi SSE 3.5 mph - N/A   Clear
11:16 PM 62.6 °F 51.8 °F 68% 30.21 in 10.0 mi SSE 3.5 mph - N/A   Clear
11:35 PM 62.6 °F 53.6 °F 72% 30.21 in 10.0 mi SE 5.8 mph - N/A   Clear
11:36 PM 62.6 °F 53.6 °F 72% 30.21 in 10.0 mi SE 5.8 mph - N/A   Clear
11:55 PM 64.4 °F 53.6 °F 68% 30.21 in 10.0 mi SE 6.9 mph - N/A   Clear